RADUGA 9 1 12618U 81069A 21064.74216336 -.00000365 00000-0 00000-0 0 9992 2 12618 10.9883 312.9035 0004152 85.7468 144.8707 1.00250471 27990 SL-12 R/B(2) 1 12850U 81069F 21064.84877255 -.00000073 00000-0 00000+0 0 9999 2 12850 12.4331 317.5554 0022574 132.5993 63.6790 0.97699093 97508